Total_Precipitation_Accumulation
1.58 1.74 1.83 1.89 1.89 1.75 1.77 1.83 1.71 1.45 1.29 1.14 1.03 0.95 0.93 0.98 1.27 1.20 1.03 0.98 0.88 0.81 0.76 0.73 0.73 0.75 0.88 1.06 1.23 1.39 1.49 1.48 1.50 1.56 1.55 1.46 1.45 1.47
1.55 1.68 1.69 1.73 1.77 1.68 1.66 1.79 1.78 1.54 1.31 1.13 1.00 0.94 1.04 1.01 1.19 1.06 1.13 1.22 0.95 0.82 0.77 0.78 0.71 0.64 0.59 0.65 0.78 0.90 0.96 0.99 1.09 1.17 1.23 1.22 1.18 1.17
1.07 1.20 1.40 1.58 1.64 1.64 1.69 1.76 1.79 1.65 1.39 1.25 1.03 1.01 1.15 1.16 1.15 1.08 1.15 1.21 0.99 0.87 0.74 0.70 0.70 0.65 0.63 0.58 0.60 0.65 0.72 0.76 0.82 0.90 0.97 1.03 1.00 0.99
0.86 0.88 0.98 1.20 1.36 1.50 1.58 1.61 1.67 1.66 1.52 1.48 1.36 1.12 1.08 1.15 1.28 1.35 1.27 1.24 1.20 1.17 1.02 0.82 0.73 0.69 0.67 0.63 0.57 0.54 0.55 0.60 0.66 0.72 0.75 0.85 0.94 0.95
0.80 0.82 0.88 0.97 1.14 1.23 1.34 1.45 1.53 1.65 1.64 1.47 1.48 1.40 1.22 1.20 1.26 1.34 1.39 1.47 1.36 1.30 1.35 1.17 0.95 0.84 0.78 0.72 0.64 0.59 0.58 0.60 0.62 0.68 0.71 0.75 0.78 0.82
0.79 0.86 0.88 0.88 1.00 1.21 1.34 1.41 1.45 1.56 1.69 1.63 1.55 1.51 1.36 1.29 1.29 1.32 1.45 1.55 1.55 1.35 1.26 1.22 1.15 1.02 0.89 0.81 0.74 0.69 0.68 0.66 0.67 0.69 0.70 0.78 0.80 0.78
0.68 0.69 0.77 0.84 0.87 1.02 1.19 1.42 1.43 1.55 1.63 1.71 1.63 1.47 1.35 1.27 1.23 1.23 1.33 1.53 1.59 1.57 1.48 1.29 1.17 1.00 0.88 0.84 0.83 0.81 0.76 0.72 0.73 0.79 0.82 0.82 0.84 0.85
0.68 0.70 0.70 0.71 0.74 0.78 0.82 1.07 1.25 1.37 1.48 1.52 1.58 1.46 1.34 1.26 1.33 1.34 1.29 1.34 1.45 1.47 1.35 1.41 1.37 1.19 1.04 0.92 0.97 1.03 0.99 0.93 0.83 0.79 0.82 0.88 0.91 0.93
0.61 0.70 0.75 0.73 0.78 0.87 0.84 0.87 0.96 1.03 1.16 1.29 1.34 1.31 1.29 1.25 1.33 1.35 1.31 1.25 1.17 1.25 1.25 1.31 1.37 1.27 1.13 1.03 1.03 1.01 0.99 0.96 0.90 0.82 0.78 0.79 0.85 0.92
0.61 0.62 0.73 0.79 0.85 1.00 0.99 1.06 1.00 0.89 0.88 0.93 1.08 1.15 1.11 1.21 1.30 1.47 1.52 1.38 1.28 1.31 1.28 1.20 1.16 1.12 1.06 1.06 1.06 0.93 0.88 0.89 0.87 0.84 0.78 0.74 0.75 0.80
0.58 0.61 0.73 0.83 0.97 1.08 1.13 1.16 1.05 0.95 0.98 1.06 1.14 1.21 1.23 1.30 1.36 1.43 1.48 1.47 1.38 1.36 1.27 1.13 1.04 1.03 1.03 1.01 0.99 0.99 0.93 0.89 0.85 0.83 0.81 0.80 0.82 0.90
0.62 0.64 0.85 0.86 0.94 1.00 1.06 1.18 1.20 1.06 0.98 1.01 1.06 1.09 1.08 1.17 1.36 1.38 1.48 1.56 1.43 1.35 1.26 1.13 1.09 1.17 1.22 1.09 0.96 0.91 0.89 0.96 0.95 0.90 0.88 0.88 0.92 0.91
0.58 0.63 0.60 0.72 0.75 0.85 0.97 1.05 1.26 1.14 1.07 1.08 1.06 0.97 0.93 0.99 1.11 1.29 1.43 1.50 1.44 1.24 1.13 1.13 1.13 1.17 1.14 1.05 0.98 0.94 0.91 0.89 0.92 0.91 0.92 0.97 1.00 0.96
0.41 0.52 0.52 0.61 0.66 0.73 0.75 0.93 1.11 1.08 1.01 1.08 1.08 1.01 0.92 0.91 0.94 1.01 1.18 1.25 1.22 1.19 1.13 1.08 1.05 1.04 1.02 0.94 0.91 0.96 0.98 0.93 0.90 0.90 0.90 1.03 1.06 1.11
0.26 0.41 0.49 0.56 0.55 0.56 0.68 0.86 0.92 0.97 1.09 1.06 1.07 1.01 0.93 0.89 0.83 0.87 0.98 1.06 1.04 1.01 1.02 1.02 1.07 1.05 1.01 0.92 0.82 0.80 0.90 0.97 0.94 0.93 0.93 0.95 0.91 0.94
0.25 0.38 0.50 0.57 0.56 0.56 0.63 0.76 0.82 0.94 1.08 1.02 0.98 0.93 0.86 0.86 0.84 0.83 0.87 0.93 0.99 0.95 0.92 0.92 1.06 1.23 1.22 1.10 1.04 0.96 0.91 0.92 0.92 0.98 1.00 1.00 1.00 0.99
0.34 0.51 0.64 0.66 0.65 0.62 0.66 0.76 0.74 0.72 0.82 0.81 0.84 0.85 0.83 0.82 0.79 0.73 0.76 0.79 0.83 0.81 0.80 0.79 0.80 0.89 1.03 1.10 1.12 1.06 1.07 1.09 1.08 1.11 1.14 1.05 0.96 0.96
0.52 0.70 0.81 0.89 0.88 0.81 0.77 0.76 0.69 0.68 0.67 0.70 0.79 0.79 0.76 0.79 0.79 0.72 0.73 0.75 0.77 0.74 0.72 0.68 0.69 0.77 0.85 0.88 0.83 0.81 0.86 0.92 0.95 1.04 1.12 1.08 0.96 0.87
0.80 0.84 0.87 0.91 0.94 0.87 0.76 0.68 0.58 0.52 0.55 0.61 0.64 0.67 0.69 0.70 0.74 0.74 0.72 0.71 0.68 0.66 0.64 0.62 0.65 0.72 0.80 0.77 0.67 0.60 0.70 0.78 0.84 0.90 0.95 0.92 0.81 0.77
0.83 0.86 0.94 0.92 0.88 0.77 0.63 0.54 0.45 0.44 0.47 0.49 0.48 0.47 0.52 0.58 0.63 0.68 0.70 0.68 0.64 0.61 0.62 0.62 0.65 0.72 0.78 0.77 0.69 0.59 0.61 0.71 0.75 0.81 0.82 0.86 0.81 0.83
0.50 0.55 0.60 0.60 0.55 0.49 0.43 0.40 0.36 0.36 0.37 0.39 0.41 0.42 0.46 0.49 0.50 0.55 0.62 0.68 0.69 0.66 0.64 0.60 0.60 0.68 0.72 0.78 0.74 0.60 0.55 0.64 0.74 0.75 0.77 0.85 0.86 0.83
0.25 0.27 0.28 0.28 0.29 0.30 0.31 0.33 0.35 0.36 0.37 0.40 0.42 0.43 0.46 0.50 0.48 0.49 0.54 0.60 0.63 0.64 0.64 0.64 0.67 0.72 0.75 0.79 0.72 0.61 0.53 0.53 0.65 0.81 0.84 0.81 0.77 0.71
0.22 0.23 0.24 0.25 0.26 0.29 0.33 0.36 0.38 0.38 0.38 0.41 0.44 0.44 0.45 0.49 0.51 0.53 0.55 0.59 0.62 0.63 0.64 0.65 0.70 0.76 0.76 0.74 0.69 0.64 0.59 0.56 0.57 0.66 0.76 0.88 0.81 0.65